Location: Unspecified
(0.0000°N, 0.0000°E)
Time: 03:44:14
(UTC+00:00)

Vanguard 2 Rocket - Pass Details

Date: 16 December 2018
Orbit: 556 x 3325 km, 32.9° (Epoch: 18 March)

Event Time Altitude Azimuth Distance (km) Brightness Sun altitude
Rises 14:41:41 0° 291° (WNW) 4,799 11.0 43.4°
Reaches altitude 10° 14:44:25 10° 287° (WNW) 4,117 10.8 42.9°
Maximum altitude 14:56:09 58° 211° (SSW) 2,869 10.9 40.4°
Drops below altitude 10° 15:14:51 10° 136° (SE) 6,218 11.1 36.4°
Sets 15:20:10 0° 132° (SE) 7,314 11.3 35.2°
